Regional Weather Roundup
Issued by NWS

Home | Current Version | Previous Version | Graphics & Text | Print | Product List | Glossary On
Versions: 1 2 3 4 5 6 7 8 9 10 11 12 13 14 15 16 17 18 19 20 21 22 23 24 25 26 27 28 29 30 31 32 33 34 35 36 37 38 39 40 41 42 43 44 45 46 47 48 49 50
000
ASUS43 KLMK 201502
RWRKY
KENTUCKY REGIONAL WEATHER ROUNDUP
NATIONAL WEATHER SERVICE LOUISVILLE KY
1100 AM EDT FRI APR 20 2018

NOTE "FAIR" INDICATES FEW OR NO CLOUDS BELOW 12,000 FEET
WITH NO SIGNIFICANT WEATHER AND/OR OBSTRUCTIONS TO VISIBILITY.

KYZ001>023-026-027-061>063-070>075-201600-
WESTERN AND SOUTH CENTRAL KENTUCKY

CITY           SKY/WX    TMP DP  RH WIND       PRES   REMARKS
PADUCAH        FAIR      51  26  37 E8G17     30.47R
HENDERSON      FAIR      49  28  44 NE8       30.49S
OWENSBORO      FAIR      50  29  44 NE9       30.49R
HOPKINSVILLE   FAIR      51  31  47 NE8       30.44R
BOWLING GREEN  FAIR      52  35  52 E9        30.46R
GLASGOW        NOT AVBL
$$

KYZ024-025-028>034-038-045-046-053-201600-
NORTH CENTRAL KENTUCKY

CITY           SKY/WX    TMP DP  RH WIND       PRES   REMARKS
LOUISVILLE/SDF FAIR      51  30  44 VRB5      30.48S
LOUISVILLE/LOU FAIR      51  31  46 NE8       30.48S
FORT KNOX      FAIR      50  28  42 NE6       30.47R
$$

KYZ035>037-039>044-047>052-055>060-089>105-201600-
NORTHEAST KENTUCKY

CITY           SKY/WX    TMP DP  RH WIND       PRES   REMARKS
LEXINGTON      FAIR      50  28  42 NE10      30.47R
COVINGTON      FAIR      48  26  42 E9        30.48R
FRANKFORT      FAIR      50  29  44 E9        30.46S
$$

KYZ054-064>069-076>088-106>120-201600-
SOUTHEAST KENTUCKY

CITY           SKY/WX    TMP DP  RH WIND       PRES   REMARKS
JACKSON        FAIR      50  24  36 VRB5      30.43R
LONDON         FAIR      49  29  46 NE8       30.44R
SOMERSET       NOT AVBL
MIDDLESBORO    FAIR      48  32  53 CALM      30.43S
MONTICELLO     FAIR      50  34  54 NW6       30.46R
$$





USA.gov is the U.S. government's official web portal to all federal, state and local government web resources and services.